www.pogodaiklimat.ru

Погода и климат >> Архив погоды >> Индонезия >> Чуруг


ПОГОДА в Чуруге

  • Прогноз погоды в Чуруге
  • Монитор погоды в Чуруге

АРХИВ ПОГОДЫ в Чуруге

Время (UTC), дата Ветер
(напр.,м/с)
 
Видим.   Явления Облачность Т
(С)
Тd
(С)
f
(%)
Тe
(С)
Тes
(С)
Комфортность P
(гПа)
Po
(гПа)
Тmin
(С)
Tmax
(С)
R
(мм)
R24
(мм)
S
(см)
12 13.05 З 1 3700 м мгла {дождь} 9/3 540 м
[Sc As op Ci sp]
+26.8 +26.1 96 +40 +40 очень
душно
1009.9 1004.7 +33.0 0.2
15 13.05 штиль 0 6000 м в посл. час гроза 8/3 540 м
[Sc As op Ci sp]
+25.4 +24.3 94 +35 +35 очень
душно
1011.6 1006.3
18 13.05 штиль 0 1900 м мгла 8/3 600 м
[Sc As trans Ci fib]
+24.7 +24.2 97 +34 +34 очень
душно
1011.0 1005.7
21 13.05 штиль 0 1900 м дымка 8/3 600 м
[Sc As trans Ci fib]
+24.4 +24.0 98 +34 +34 очень
душно
1010.0 1004.7
00 14.05 штиль 0 1900 м дымка 6/3 600 м
[Sc Ac trans Ci sp]
+24.6 +24.3 98 +34 +35 очень
душно
1011.0 1005.7 +24.0 0.7
03 14.05 СВ 2 30 км 4/4 600 м
[Sc Ac trans Ci sp]
+31.0 +22.7 61 +41 +49 опасность
перегрева
1012.0 1006.7
09 14.05 СВ 4 10 км 9/5 540 м
[Cb calv As trans Ci sp]
+32.3 +23.7 61 +44 +45 опасность
перегрева
1008.4 1003.1
12 14.05 ЮЗ 1 7000 м зарница 8/5 540 м
[Cb calv As trans Ci sp]
+29.0 +25.5 81 +43 +43 опасность
перегрева
1010.3 1005.0 +34.2
15 14.05 штиль 0 4000 м дымка 8/3 600 м
[Sc As trans Ci fib]
+26.2 +25.3 95 +38 +38 очень
душно
1012.0 1006.7
18 14.05 штиль 0 2900 м дымка 8/4 600 м
[Sc As trans Ci fib]
+25.4 +24.8 96 +36 +36 очень
душно
1010.9 1005.6
21 14.05 штиль 0 1000 м дымка 8/4 600 м
[Sc As trans Ci fib]
+24.9 +24.4 97 +35 +35 очень
душно
1010.0 1004.7
00 15.05 штиль 0 1000 м дымка 9/4 600 м
[Sc As trans Ci sp]
+24.5 +24.0 97 +34 +34 очень
душно
1011.2 1005.9 +24.2
03 15.05 В 3 5000 м мгла 3/1 540 м
[Cu hum As trans Ci fib]
+31.1 +24.7 69 +44 +54 опасность
перегрева
1011.8 1006.5
06 15.05 СВ 3 7000 м гроза без осадков 10/6 540 м
[Cb cap As op]
+32.7 +24.7 63 +46 +47 опасность
перегрева
1009.3 1004.0
09 15.05 З 3 7000 м в посл. час дождь {гроза} 10/6 540 м
[Cb calv As op]
+26.6 +25.4 93 +39 +39 очень
душно
1009.2 1003.9 5
12 15.05 ЮЗ 6 1700 м гроза, ливневой дождь 10/6 540 м
[Cb cap As op]
+24.9 +24.9 100 +35 +35 очень
душно
1012.7 1007.4 +32.8 60
15 15.05 В 2 8000 м {дождь} 10/6 540 м
[Cb calv Ac As Ci sp]
+24.0 +23.2 95 +32 +32 очень
душно
1013.1 1007.8 0.0
18 15.05 З 1 2100 м {дождь} 10/3 540 м
[Sc As op Ci sp]
+24.4 +24.0 98 +34 +34 очень
душно
1012.9 1007.6 0.0
21 15.05 Ю 2 1500 м дымка 9/3 540 м
[Sc As op Ci sp]
+24.3 +23.7 96 +33 +33 очень
душно
1011.3 1006.0
00 16.05 ЮЗ 1 2000 м дымка 8/3 600 м
[Sc As trans Ci fib]
+24.4 +24.1 98 +34 +34 очень
душно
1012.6 1007.3 +23.7 60
03 16.05 ЮЗ 2 7000 м 8/3 600 м
[Sc As op Ci fib]
+29.2 +24.9 78 +42 +49 опасность
перегрева
1013.0 1007.7
06 16.05 З 3 10 км 8/3 540 м
[Cu med, cong As op Ci sp]
+32.6 +24.1 61 +45 +51 опасность
перегрева
1011.5 1006.2
09 16.05 Ю 4 2000 м гроза, ливневой дождь 10/6 540 м
[Cb cap As op]
+28.4 +26.2 88 +43 +43 опасность
перегрева
1009.8 1004.5 1
12 16.05 В 2 7000 м гроза, ливневой дождь 10/6 540 м
[Cb calv As op]
+26.1 +24.1 89 +36 +36 очень
душно
1011.0 1005.7 +33.5 11
15 16.05 штиль 0 6000 м {гроза, дождь} 10/5 540 м
[Sc As op]
+25.2 +24.4 95 +35 +35 очень
душно
1013.1 1007.8 0.1
18 16.05 штиль 0 1000 м дымка {гроза, дождь} 10/6 540 м
[Sc As op]
+24.7 +24.2 97 +34 +34 очень
душно
1012.2 1007.0 0.1
21 16.05 штиль 0 1000 м дымка 10/6 540 м
[Sc As op]
+24.3 +23.9 98 +33 +33 очень
душно
1011.3 1006.1
00 17.05 штиль 0 1000 м дымка 9/4 600 м
[Sc As trans Ci sp]
+24.2 +23.9 98 +33 +34 очень
душно
1011.6 1006.3 +23.3 127
03 17.05 ЮВ 3 10 км 6/1 600 м
[Sc As trans Ci fib]
+30.0 +22.8 65 +40 +48 очень
душно
1012.6 1007.3
06 17.05 СВ 3 10 км 6/1 600 м
[Sc As trans Ci fib]
+33.2 +19.4 44 +39 +47 очень
душно
1010.4 1005.1
09 17.05 СВ 2 10 км 8/3 600 м
[Cu hum As op Ci sp]
+31.3 +24.2 66 +43 +45 опасность
перегрева
1009.0 1003.8
12 17.05 штиль 0 10 км 6/3 600 м
[Cu hum As trans Ci fib]
+27.9 +24.6 82 +39 +39 очень
душно
1010.8 1005.5 +33.8
15 17.05 штиль 0 5000 м мгла 10/5 540 м
[Sc As op]
+26.8 +25.3 92 +39 +39 очень
душно
1012.6 1007.3
18 17.05 ЮВ 1 3000 м мгла 6/4 600 м
[Sc As op Ci sp]
+26.5 +24.8 90 +38 +38 очень
душно
1011.8 1006.5
21 17.05 штиль 0 2500 м мгла 6/4 600 м
[Sc As op Ci sp]
+25.2 +24.4 95 +35 +35 очень
душно
1010.8 1005.5
00 18.05 штиль 0 1800 м мгла 6/4 540 м
[Sc As trans Ci sp]
+25.3 +24.4 95 +35 +36 очень
душно
1012.2 1006.9 +24.3
03 18.05 СВ 3 10 км 5/3 600 м
[Cu hum As trans Ci fib]
+30.4 +23.6 67 +41 +49 опасность
перегрева
1012.8 1007.5
06 18.05 СВ 3 10 км 6/4 600 м
[Cu hum As trans Ci fib]
+32.5 +21.8 53 +41 +47 опасность
перегрева
1010.5 1005.2
09 18.05 С 4 10 км 8/5 540 м
[Cu med, cong As op Ci sp]
+32.1 +24.7 65 +45 +46 опасность
перегрева
1009.0 1003.7
12 18.05 З 2 10 км 8/3 540 м
[Sc As op Ci sp]
+25.9 +24.7 93 +37 +37 очень
душно
1010.5 1005.3 +33.2
15 18.05 Ю 2 3900 м мгла 8/3 600 м
[Sc As trans Ci fib]
+26.0 +24.8 93 +37 +37 очень
душно
1012.6 1007.3
18 18.05 штиль 0 3900 м дымка 8/3 600 м
[Sc As trans Ci fib]
+25.2 +24.9 98 +36 +36 очень
душно
1012.3 1007.0
21 18.05 штиль 0 3900 м дымка 8/3 600 м
[Sc As trans Ci fib]
+24.0 +23.6 98 +33 +33 очень
душно
1011.3 1006.0
00 19.05 штиль 0 1900 м дымка 8/3 600 м
[Sc As trans Ci fib]
+24.3 +23.4 95 +33 +33 очень
душно
1012.3 1007.0 +23.8
03 19.05 З 3 5000 м 6/3 540 м
[Cu hum As trans Ci sp]
+30.4 +23.6 67 +41 +48 опасность
перегрева
1013.0 1007.7
06 19.05 ЮЗ 2 6000 м 6/3 540 м
[Cu hum As trans Ci sp]
+33.0 +22.2 53 +42 +52 опасность
перегрева
1010.5 1005.2
09 19.05 В 2 6000 м 9/5 540 м
[Sc As trans Ci fib]
+32.2 +23.8 61 +44 +45 опасность
перегрева
1009.2 1003.9
12 19.05 штиль 0 5000 м мгла 9/4 600 м
[Sc As op Ci sp]
+28.8 +24.6 78 +41 +41 опасность
перегрева
1010.7 1005.4 +33.5
15 19.05 штиль 0 3900 м слаб. дождь 10/5 540 м
[Sc As op]
+27.4 +25.1 87 +39 +39 очень
душно
1013.2 1007.9 0.0
18 19.05 штиль 0 3700 м дымка {дождь} 10/6 540 м
[Sc As op]
+25.8 +24.8 94 +37 +37 очень
душно
1012.3 1007.0 11
21 19.05 штиль 0 1000 м дымка 10/6 540 м
[Sc As op]
+25.1 +24.6 97 +35 +35 очень
душно
1010.7 1005.4
00 20.05 штиль 0 1000 м дымка 9/4 600 м
[Sc As trans Ci sp]
+25.3 +24.6 96 +36 +36 очень
душно
1011.9 1006.6 +23.8 110 11
03 20.05 штиль 0 5000 м 9/4 540 м
[Cu hum Ac trans Ci sp]
+30.7 +22.8 63 +41 +47 опасность
перегрева
1012.5 1007.2
06 20.05 штиль 0 8000 м 9/4 540 м
[Cu med, cong As op Ci fib]
+32.7 +22.0 53 +41 +49 опасность
перегрева
1010.4 1005.1
09 20.05 СВ 3 7000 м гроза без осадков 10/6 540 м
[Cb calv As op]
+31.3 +24.6 68 +44 +45 опасность
перегрева
1009.9 1004.6

 

Местоположение метеостанции Чуруг (Индонезия): широта -6.23 долгота 106.65 высота над уровнем моря 46 м.

В архиве по умолчанию представлена погода в Чуруге за последнюю неделю. Архивные данные за месяц целиком и за предыдущие месяцы, начиная с января 2011 года, Вы можете получить, выбрав интересующий диапазон дат из раскрывающегося списка и нажав кнопку "Ввод!".


*Определитесь, кто Вы:
робот инопланетянин человек

Внимание! Время в таблицах - всемирное. Для получения местного времени необходимо прибавить поправку, которая равна 7 ч.

Смотрите также архив погоды в соседних городах и на ближайших метеорологических станциях:

Погода в Аэропорту Сукарно-Хатта (Индонезия) (12 км)
Погода в Джакарте (Индонезия) (21 км)
Погода в Джакарта порту (Индонезия) (28 км)
Погода в Серанге (Индонезия) (59 км)
Погода в Цитеко (Индонезия) (61 км)
Погода в Бандунге (Индонезия) (127 км)
Погода в Сиребоне (Индонезия) (187 км)
Погода в Танджунгкаранге (Индонезия) (206 км)
Погода в Тегале (Индонезия) (285 км)
Погода в Чилачапе (Индонезия) (309 км)

Пояснения к столбцам:

Ветер - указаны скорость ветра в м/с - средняя за 10 мин, порывы в срок и между сроками (в фигурных скобках) и направление, откуда дует ветер: С - северный, СВ - северо-восточный, В - восточный, ЮВ - юго-восточный, Ю - южный, ЮЗ - юго-западный, З - западный, СЗ - северо-западный.
Видимость - горизонтальная дальность видимости в метрах или километрах. При видимости от 1 до 10 км при отсутствии осадков обычно наблюдается дымка, при ухудшении видимости до 1 км и менее - туман. В сухую погоду видимость может ухудшаться дымом, пылью или мглою.
Явления - указаны атмосферные явления, наблюдавшиеся в срок или в последний час перед сроком; фигурными скобками обозначены явления, наблюдавшиеся между сроками (за 1-3 часа до срока); квадратными скобками обозначены град или гололедные отложения с указанием их диаметра в мм.
Облачность - указаны через наклонную черту общая и нижняя облачность в баллах и высота нижней границы облаков в метрах; квадратными скобками обозначены формы облаков: Ci - перистые, Cs - перисто-слоистые, Cc - перисто-кучевые, Ac - высококучевые, As - высокослоистые, Sc - слоисто-кучевые, Ns - слоисто-дождевые, Cu - кучевые, Cb - кучево-дождевые. Подробнее классификацию облаков см. в Атласе облаков (PDF).
T - Температура воздуха - температура, измеренная на высоте 2 м над землей.
Td - Температура точки росы - температура, при понижении до которой содержащийся в воздухе водяной пар достигнет насыщения.
f - Относительная влажность воздуха - влажноcть воздуха, измеренная на высоте 2 м над землей.
Te - Эффективная температура - температура, которую ощущает одетый по сезону человек в тени. Характеристика душности погоды. При расчете учитывается влияние влажности воздуха и скорости ветра на теплоощущения человека.
Tes - Эффективная температура на солнце - температура, которую ощущает человек, с поправкой на солнечный нагрев. Характеристика знойности погоды. Зависит от высоты солнца над горизонтом, облачности и скорости ветра. Ночью, в пасмурную погоду, а также при ветре 12 м/с и более поправка равна нулю.
P - Атмосферное давление - приведенное к уровню моря атмосферное давление.
Po - Атмосферное давление - измеренное на уровне метеостанции атмосферное давление.
Tmin - Минимальная температура - минимум температуры воздуха на высоте 2 м над землей.
Tmax - Максимальная температура - максимум температуры воздуха на высоте 2 м над землей.
R - Количество осадков - Количество выпавших осадков за период времени, мм. При наведении курсора мыши на число - период времени, за который выпало указанное количество осадков.
R24 - Количество осадков - Количество выпавших осадков за 24 часа, мм.
S - Снежный покров - Высота снежного покрова, см. При наведении курсора мыши на число - состояние снежного покрова и степень покрытия местности в баллах.